This is the latest recevied weather packets stored in our database for station/object N0HEQ. If no packets are shown the sender has not sent any weather packets the latest 10 day(s).
| Time | Temp. | Humidity | Pressure | Rain* | Wind** | Luminosity | Snow |
|---|---|---|---|---|---|---|---|
| 1777852864 | 20.56° C | 22% | 1014.4 hPa | 0 mm | - | 39 W/m² | - |
| 1777852563 | 20.56° C | 21% | 1014 hPa | 0 mm | - | 51 W/m² | - |
| 1777852259 | 20.56° C | 21% | 1014.1 hPa | 0 mm | - | 57 W/m² | - |
| 1777851957 | 20.56° C | 20% | 1014.2 hPa | 0 mm | - | 58 W/m² | - |
| 1777851655 | 21.11° C | 21% | 1014.1 hPa | 0 mm | - | 56 W/m² | - |
| 1777851351 | 21.67° C | 20% | 1014.1 hPa | 0 mm | - | 72 W/m² | - |
| 1777851047 | 21.67° C | 18% | 1014.3 hPa | 0 mm | - | 100 W/m² | - |
| 1777850744 | 22.22° C | 18% | 1014.3 hPa | 0 mm | - | 123 W/m² | - |
| 1777850441 | 22.78° C | 18% | 1014.1 hPa | 0 mm | - | 134 W/m² | - |
| 1777850139 | 22.78° C | 17% | 1014.3 hPa | 0 mm | - | 136 W/m² | - |
| 1777849836 | 22.78° C | 16% | 1014.2 hPa | 0 mm | - | 152 W/m² | - |
| 1777849532 | 23.89° C | 15% | 1014.2 hPa | 0 mm | - | 271 W/m² | - |
| 1777849230 | 23.89° C | 16% | 1014.3 hPa | 0 mm | - | 269 W/m² | - |
| 1777848926 | 23.33° C | 17% | 1014.2 hPa | 0 mm | - | 305 W/m² | - |
| 1777848621 | 22.78° C | 17% | 1014.1 hPa | 0 mm | - | 242 W/m² | - |
| 1777848319 | 22.78° C | 17% | 1014.3 hPa | 0 mm | - | 190 W/m² | - |
| 1777848017 | 22.78° C | 17% | 1014.2 hPa | 0 mm | - | 192 W/m² | - |
| 1777847715 | 22.78° C | 16% | 1014.2 hPa | 0 mm | - | 156 W/m² | - |
| 1777847410 | 23.33° C | 17% | 1014.2 hPa | 0 mm | - | 146 W/m² | - |
| 1777847108 | 24.44° C | 14% | 1014.3 hPa | 0 mm | - | 200 W/m² | - |
| 1777846806 | 23.89° C | 14% | 1014.6 hPa | 0 mm | - | 261 W/m² | - |
| 1777846504 | 24.44° C | 14% | 1014.6 hPa | 0 mm | - | 380 W/m² | - |
| 1777846201 | 23.33° C | 15% | 1014.8 hPa | 0 mm | - | 356 W/m² | - |
| 1777845897 | 23.33° C | 16% | 1014.8 hPa | 0 mm | - | 251 W/m² | - |
| 1777845589 | 23.89° C | 14% | 1014.8 hPa | 0 mm | - | 214 W/m² | - |
* Rain latest hour (hover to see other rain measurements)
** Current wind speed in m/s (hover to see current wind gust speed)